| time (UTC) | temp F | wind direction | speed MPH | gust MPH | rain 1hr in | rain 24hr in | rain mn in | humidity % | barometer mb |
| 20260903153009 | 63 | 179 | 4.0 | 8.0 | 0.00 | 0.00 | 0.00 | 37 | 1013.4 |
| 20260903151504 | 62 | 194 | 5.0 | 10.0 | 0.00 | 0.00 | 0.00 | 38 | 1013.5 |
| 20260903150011 | 62 | 154 | 6.0 | 10.0 | 0.00 | 0.00 | 0.00 | 38 | 1013.5 |
| 20260903144510 | 62 | 162 | 6.0 | 9.0 | 0.00 | 0.00 | 0.00 | 38 | 1013.6 |
| 20260903143020 | 59 | 151 | 6.0 | 10.0 | 0.00 | 0.00 | 0.00 | 40 | 1013.7 |
| 20260903141512 | 59 | 148 | 5.0 | 9.0 | 0.00 | 0.00 | 0.00 | 40 | 1013.4 |
| 20260903140015 | 58 | 136 | 6.0 | 9.0 | 0.00 | 0.00 | 0.00 | 41 | 1013.5 |
| 20260903134511 | 56 | 149 | 6.0 | 10.0 | 0.00 | 0.00 | 0.00 | 42 | 1013.3 |
| 20260903133015 | 57 | 167 | 6.0 | 11.0 | 0.00 | 0.00 | 0.00 | 41 | 1013.4 |
| 20260903131512 | 57 | 165 | 5.0 | 10.0 | 0.00 | 0.00 | 0.00 | 40 | 1013.2 |
| 20260903130017 | 56 | 169 | 1.0 | 5.0 | 0.00 | 0.00 | 0.00 | 42 | 1012.8 |
| 20260903124509 | 56 | 221 | 1.0 | 3.0 | 0.00 | 0.00 | 0.00 | 40 | 1012.6 |
| 20260903123012 | 56 | 73 | 0.0 | 2.0 | 0.00 | 0.00 | 0.00 | 41 | 1012.3 |
| 20260903121528 | 56 | 89 | 0.0 | 3.0 | 0.00 | 0.00 | 0.00 | 41 | 1012.3 |
| 20260903120018 | 57 | 225 | 0.0 | 6.0 | 0.00 | 0.00 | 0.00 | 40 | 1012.2 |
| 20260903114517 | 57 | 312 | 2.0 | 4.0 | 0.00 | 0.00 | 0.00 | 38 | 1012.1 |
| 20260903113022 | 57 | 279 | 2.0 | 6.0 | 0.00 | 0.00 | 0.00 | 38 | 1012.0 |
| 20260903111519 | 56 | 44 | 1.0 | 3.0 | 0.00 | 0.00 | 0.00 | 41 | 1011.8 |
| 20260903110019 | 57 | 35 | 0.0 | 0.0 | 0.00 | 0.00 | 0.00 | 39 | 1011.6 |
| 20260903104520 | 55 | 88 | 3.0 | 5.0 | 0.00 | 0.00 | 0.00 | 40 | 1011.3 |
| 20260903103008 | 54 | 96 | 1.0 | 4.0 | 0.00 | 0.00 | 0.00 | 50 | 1011.0 |
| 20260903101513 | 54 | 68 | 1.0 | 7.0 | 0.00 | 0.00 | 0.00 | 51 | 1011.1 |
| 20260903100022 | 57 | 254 | 2.0 | 4.0 | 0.00 | 0.00 | 0.00 | 41 | 1010.9 |
| 20260903094522 | 58 | 90 | 2.0 | 3.0 | 0.00 | 0.00 | 0.00 | 37 | 1010.7 |
| 20260903093027 | 56 | 86 | 3.0 | 3.0 | 0.00 | 0.00 | 0.00 | 41 | 1010.7 |
| 20260903091517 | 55 | 84 | 0.0 | 3.0 | 0.00 | 0.00 | 0.00 | 45 | 1011.0 |
| 20260903090016 | 56 | 88 | 1.0 | 2.0 | 0.00 | 0.00 | 0.00 | 44 | 1010.9 |
| 20260903084525 | 56 | 97 | 3.0 | 6.0 | 0.00 | 0.00 | 0.00 | 39 | 1010.8 |
| 20260903083028 | 52 | 112 | 1.0 | 3.0 | 0.00 | 0.00 | 0.00 | 51 | 1011.0 |
| 20260903081525 | 52 | 119 | 2.0 | 3.0 | 0.00 | 0.00 | 0.00 | 54 | 1011.1 |
| 20260903080013 | 56 | 277 | 0.0 | 2.0 | 0.00 | 0.00 | 0.00 | 45 | 1010.9 |
| 20260903074518 | 55 | 78 | 2.0 | 5.0 | 0.00 | 0.00 | 0.00 | 47 | 1010.8 |
| 20260903073005 | 54 | 73 | 2.0 | 4.0 | 0.00 | 0.00 | 0.00 | 47 | 1011.1 |
| 20260903071505 | 54 | 90 | 2.0 | 6.0 | 0.00 | 0.00 | 0.00 | 50 | 1011.1 |
| 20260903070011 | 55 | 94 | 0.0 | 3.0 | 0.00 | 0.00 | 0.00 | 48 | 1011.0 |
| 20260903064526 | 53 | 107 | 2.0 | 6.0 | 0.00 | 0.00 | 0.00 | 55 | 1011.0 |
| 20260903063005 | 53 | 123 | 0.0 | 2.0 | 0.00 | 0.00 | 0.00 | 52 | 1011.1 |
| 20260903061506 | 53 | 140 | 2.0 | 5.0 | 0.00 | 0.00 | 0.00 | 55 | 1011.0 |
| 20260903060015 | 57 | 190 | 2.0 | 3.0 | 0.00 | 0.00 | 0.00 | 47 | 1010.8 |
| 20260903054514 | 55 | 84 | 2.0 | 4.0 | 0.00 | 0.00 | 0.00 | 47 | 1011.0 |
| 20260903053018 | 56 | 69 | 1.0 | 4.0 | 0.00 | 0.00 | 0.00 | 47 | 1011.3 |
| 20260903051503 | 56 | 155 | 2.0 | 4.0 | 0.00 | 0.00 | 0.00 | 49 | 1011.5 |
| 20260903050009 | 57 | 271 | 0.0 | 2.0 | 0.00 | 0.00 | 0.00 | 45 | 1011.4 |
| 20260903044512 | 57 | 140 | 0.0 | 4.0 | 0.00 | 0.00 | 0.00 | 43 | 1011.2 |
| 20260903043018 | 57 | 88 | 2.0 | 4.0 | 0.00 | 0.00 | 0.00 | 42 | 1011.2 |
| 20260903041529 | 59 | 321 | 0.0 | 2.0 | 0.00 | 0.00 | 0.00 | 41 | 1011.5 |
| 20260903040008 | 59 | 338 | 2.0 | 3.0 | 0.00 | 0.00 | 0.00 | 41 | 1011.7 |
| 20260903034508 | 59 | 133 | 2.0 | 4.0 | 0.00 | 0.00 | 0.00 | 42 | 1011.5 |
| 20260903033016 | 60 | 109 | 2.0 | 3.0 | 0.00 | 0.00 | 0.00 | 38 | 1011.5 |
| 20260903031518 | 60 | 109 | 3.0 | 6.0 | 0.00 | 0.00 | 0.00 | 40 | 1011.4 |
| 20260903030030 | 60 | 94 | 0.0 | 2.0 | 0.00 | 0.00 | 0.00 | 40 | 1011.3 |
| 20260903024506 | 60 | 80 | 2.0 | 3.0 | 0.00 | 0.00 | 0.00 | 43 | 1011.1 |
| 20260903023012 | 62 | 71 | 2.0 | 4.0 | 0.00 | 0.00 | 0.00 | 40 | 1011.1 |
| 20260903021522 | 62 | 88 | 2.0 | 3.0 | 0.00 | 0.00 | 0.00 | 40 | 1011.1 |
| 20260903020044 | 61 | 80 | 0.0 | 2.0 | 0.00 | 0.00 | 0.00 | 44 | 1011.2 |
| 20260903014528 | 63 | 53 | 0.0 | 0.0 | 0.00 | 0.00 | 0.00 | 43 | 1011.2 |
| 20260903013008 | 63 | 33 | 0.0 | 0.0 | 0.00 | 0.00 | 0.00 | 42 | 1010.9 |
| 20260903011516 | 65 | 60 | 0.0 | 3.0 | 0.00 | 0.00 | 0.00 | 39 | 1010.9 |
| 20260903010024 | 66 | 76 | 0.0 | 8.0 | 0.00 | 0.00 | 0.00 | 37 | 1010.9 |
| 20260903004529 | 67 | 360 | 4.0 | 9.0 | 0.00 | 0.00 | 0.00 | 35 | 1011.0 |
| 20260903003028 | 67 | 352 | 1.0 | 7.0 | 0.00 | 0.00 | 0.00 | 36 | 1010.9 |
| 20260903001514 | 69 | 327 | 4.0 | 10.0 | 0.00 | 0.00 | 0.00 | 36 | 1010.9 |
| 20260903000016 | 70 | 287 | 2.0 | 11.0 | 0.00 | 0.00 | 0.00 | 34 | 1010.8 |
| 20260902234526 | 72 | 340 | 5.0 | 10.0 | 0.00 | 0.00 | 0.00 | 34 | 1010.7 |
| 20260902233029 | 73 | 341 | 2.0 | 13.0 | 0.00 | 0.00 | 0.00 | 31 | 1010.6 |
| 20260902231532 | 77 | 282 | 12.0 | 21.0 | 0.00 | 0.00 | 0.00 | 15 | 1010.6 |
| 20260902230018 | 75 | 330 | 3.0 | 5.0 | 0.00 | 0.00 | 0.00 | 29 | 1010.5 |
| 20260902224524 | 78 | 26 | 3.0 | 19.0 | 0.00 | 0.00 | 0.00 | 27 | 1010.5 |
| 20260902223004 | 79 | 233 | 12.0 | 23.0 | 0.00 | 0.00 | 0.00 | 16 | 1010.0 |
| 20260902221509 | 79 | 221 | 12.0 | 26.0 | 0.00 | 0.00 | 0.00 | 18 | 1009.7 |
| 20260902220021 | 78 | 198 | 23.0 | 36.0 | 0.00 | 0.00 | 0.00 | 16 | 1009.4 |
| 20260902214523 | 78 | 224 | 17.0 | 31.0 | 0.00 | 0.00 | 0.00 | 16 | 1009.6 |
| 20260902213004 | 80 | 201 | 13.0 | 29.0 | 0.00 | 0.00 | 0.00 | 17 | 1009.4 |
| 20260902211505 | 79 | 189 | 17.0 | 29.0 | 0.00 | 0.00 | 0.00 | 16 | 1009.1 |
| 20260902210018 | 79 | 192 | 20.0 | 35.0 | 0.00 | 0.00 | 0.00 | 16 | 1009.1 |
| 20260902204535 | 79 | 194 | 17.0 | 25.0 | 0.00 | 0.00 | 0.00 | 18 | 1009.2 |
| 20260902203026 | 80 | 190 | 18.0 | 33.0 | 0.00 | 0.00 | 0.00 | 19 | 1009.1 |
| 20260902201517 | 78 | 160 | 22.0 | 33.0 | 0.00 | 0.00 | 0.00 | 20 | 1009.2 |
| 20260902200009 | 79 | 157 | 12.0 | 26.0 | 0.00 | 0.00 | 0.00 | 25 | 1009.2 |
| 20260902194521 | 79 | 177 | 11.0 | 30.0 | 0.00 | 0.00 | 0.00 | 25 | 1009.6 |
| 20260902193024 | 78 | 329 | 5.0 | 13.0 | 0.00 | 0.00 | 0.00 | 29 | 1009.9 |
| 20260902191527 | 75 | 219 | 13.0 | 25.0 | 0.00 | 0.00 | 0.00 | 28 | 1010.0 |
| 20260902190008 | 76 | 169 | 13.0 | 24.0 | 0.00 | 0.00 | 0.00 | 27 | 1010.1 |
| 20260902184516 | 74 | 189 | 13.0 | 24.0 | 0.00 | 0.00 | 0.00 | 27 | 1010.4 |
| 20260902183022 | 75 | 214 | 14.0 | 23.0 | 0.00 | 0.00 | 0.00 | 30 | 1010.7 |
| 20260902181527 | 76 | 186 | 11.0 | 25.0 | 0.00 | 0.00 | 0.00 | 32 | 1010.7 |
| 20260902180008 | 72 | 166 | 12.0 | 16.0 | 0.00 | 0.00 | 0.00 | 35 | 1011.0 |
| 20260902174511 | 72 | 196 | 9.0 | 18.0 | 0.00 | 0.00 | 0.00 | 41 | 1011.2 |
| 20260902173035 | 67 | 183 | 2.0 | 8.0 | 0.00 | 0.00 | 0.00 | 61 | 1011.4 |
| 20260902171520 | 67 | 326 | 2.0 | 3.0 | 0.00 | 0.00 | 0.00 | 59 | 1011.3 |
| 20260902170027 | 66 | 345 | 0.0 | 2.0 | 0.00 | 0.00 | 0.00 | 61 | 1011.3 |
| 20260902164510 | 65 | 298 | 1.0 | 4.0 | 0.00 | 0.00 | 0.00 | 63 | 1011.4 |
| 20260902163014 | 65 | 352 | 0.0 | 3.0 | 0.00 | 0.00 | 0.00 | 60 | 1011.3 |
| 20260902161526 | 64 | 325 | 1.0 | 3.0 | 0.00 | 0.00 | 0.00 | 66 | 1011.2 |
| 20260902160024 | 61 | 65 | 2.0 | 4.0 | 0.00 | 0.00 | 0.00 | 67 | 1011.5 |
| 20260902154531 | 60 | 342 | 0.0 | 3.0 | 0.00 | 0.00 | 0.00 | 68 | 1011.6 |